Location: *
(50.6089°N, 2.2719°E)
Time: 17:04:35
(UTC+00:00)

Cosmos 1459 Rocket - Pass Details

Date: 18 October 2019
Orbit: 938 x 999 km, 83.0° (Epoch: 16 November)

Event Time Altitude Azimuth Distance (km) Brightness Sun altitude
Rises 19:09:57 0° 350° (N) 3,652 7.3 -22.3°
Reaches altitude 10° 19:12:26 10° 351° (N) 2,710 6.6 -22.7°
Maximum altitude 19:18:40 86° 81° (E) 983 3.9 -23.7°
Enters shadow 19:23:03 21° 170° (S) 2,037 5.4 -24.3°
